Torna al catalogo

STARLINK-11704

AttivoComunicazioniVLEO
NORAD 64245·PAYLOAD·🇺🇸 United States

Lanciato Jun 3, 2025 da Cape Canaveral Space Force Station

Loading…

Prossimi Passaggi (prossime 24 ore)

TLE

AggiornatoSource: CelesTrak SupGP

Epoca: Sep 15, 2026, 03:25 UTC

1 64245C 25119N   26258.14284722  .00076480  00000+0  59380-3 0  2582
2 64245  43.0003 146.9103 0001578 262.0601  92.1596 15.70809480    10

Traccia STARLINK-11704 in tempo reale con AllMySat

Download on the App Store